Wrangell, AK

4:35 AM AKST on February 24, 2017 (GMT -0900)
Wrangell

Weather History for PAWG - January, 2014

Change the Weather History Date:

Tuesday, January 21, 2014

  Actual Average Record
Temperature  
Mean Temperature 42 °F -  
Max Temperature 44 °F 36 °F 58 °F (1981)
Min Temperature 39 °F 27 °F 2 °F (1952)
Degree Days  
Heating Degree Days 24    
Moisture  
Dew Point 35 °F    
Average Humidity 76    
Maximum Humidity 81    
Minimum Humidity 70    
Precipitation  
Precipitation 0.01 in - - ()
Sea Level Pressure  
Sea Level Pressure 30.08 in    
Wind  
Wind Speed 5 mph (ESE)    
Max Wind Speed 12 mph    
Max Gust Speed -    
Visibility 10 miles    
Events      
Averages and records for this station are not official NWS values.
T = Trace of Precipitation, MM = Missing Value Source: NWS Daily Summary

Daily Weather History Graph

Daily Weather History Graph

Search for Another Location

Airport or City:

Trip Planner

Search our weather history database for the weather conditions in past years. The results will help you decide how hot, cold, wet, or windy it might be!

Date:

Astronomy

Jan. 21, 2014 Rise Set
Actual Time 8:05 AM AKST 3:57 PM AKST
Civil Twilight 7:20 AM AKST 4:41 PM AKST
Nautical Twilight 6:33 AM AKST 5:28 PM AKST
Astronomical Twilight 5:49 AM AKST 6:13 PM AKST
Moon 10:52 PM AKST (1/21) 9:30 AM AKST (1/21)
Length of Visible Light 9h 20m
Length of Day
7h 52m
Waning Gibbous, 73% of the Moon is Illuminated
Jan 21
Waning Gibbous
Jan 23
Last Quarter
Jan 30
New
Feb 6
First Quarter
Feb 14
Full

Hourly Weather History & Observations

Time (AKST) Temp. Windchill Dew Point Humidity Pressure Visibility Wind Dir Wind Speed Gust Speed Precip Events Conditions
12:16 AM 42.8 °F - 35.6 °F 76% 30.17 in 10.0 mi Calm Calm - N/A   Overcast
12:36 AM 42.8 °F 38.0 °F 35.6 °F 76% 30.16 in 10.0 mi East 8.1 mph - N/A   Overcast
12:56 AM 42.8 °F 38.6 °F 35.6 °F 76% 30.15 in 10.0 mi SE 6.9 mph - N/A   Scattered Clouds
1:16 AM 42.8 °F - 35.6 °F 76% 30.15 in 10.0 mi Calm Calm - N/A   Partly Cloudy
1:36 AM 42.8 °F 38.6 °F 35.6 °F 76% 30.14 in 10.0 mi ENE 6.9 mph - N/A   Mostly Cloudy
1:56 AM 44.6 °F 40.7 °F 37.4 °F 76% 30.13 in 10.0 mi East 6.9 mph - N/A   Partly Cloudy
2:16 AM 42.8 °F 40.1 °F 35.6 °F 76% 30.14 in 10.0 mi NNW 4.6 mph - N/A   Scattered Clouds
2:36 AM 41.0 °F 39.0 °F 33.8 °F 76% 30.15 in 10.0 mi WNW 3.5 mph - N/A   Mostly Cloudy
2:56 AM 42.8 °F 39.3 °F 35.6 °F 76% 30.15 in 10.0 mi NNW 5.8 mph - N/A   Partly Cloudy
3:16 AM 41.0 °F - 35.6 °F 81% 30.14 in 10.0 mi Calm Calm - N/A   Partly Cloudy
3:36 AM 41.0 °F 37.1 °F 35.6 °F 81% 30.13 in 10.0 mi SE 5.8 mph - N/A   Partly Cloudy
3:56 AM 42.8 °F 38.0 °F 35.6 °F 76% 30.12 in 10.0 mi SE 8.1 mph - N/A   Scattered Clouds
4:16 AM 44.6 °F 39.7 °F 37.4 °F 76% 30.12 in 10.0 mi East 9.2 mph - N/A   Partly Cloudy
4:36 AM 42.8 °F - 35.6 °F 76% 30.12 in 10.0 mi Calm Calm - N/A   Partly Cloudy
4:56 AM 42.8 °F 37.0 °F 37.4 °F 81% 30.11 in 10.0 mi East 10.4 mph - N/A   Partly Cloudy
5:16 AM 44.6 °F 39.7 °F 35.6 °F 71% 30.10 in 10.0 mi ESE 9.2 mph - N/A   Mostly Cloudy
5:36 AM 42.8 °F 38.6 °F 35.6 °F 76% 30.10 in 10.0 mi ESE 6.9 mph - N/A   Overcast
5:56 AM 42.8 °F 38.6 °F 35.6 °F 76% 30.09 in 10.0 mi SE 6.9 mph - N/A   Mostly Cloudy
6:16 AM 42.8 °F 40.1 °F 35.6 °F 76% 30.09 in 10.0 mi ESE 4.6 mph - N/A   Mostly Cloudy
6:36 AM 42.8 °F 39.3 °F 35.6 °F 76% 30.09 in 10.0 mi ESE 5.8 mph - N/A   Mostly Cloudy
6:56 AM 42.8 °F 40.1 °F 35.6 °F 76% 30.09 in 10.0 mi ENE 4.6 mph - N/A   Mostly Cloudy
7:16 AM 42.8 °F 41.1 °F 35.6 °F 76% 30.08 in 10.0 mi East 3.5 mph - N/A   Mostly Cloudy
7:36 AM 42.8 °F 38.6 °F 35.6 °F 76% 30.07 in 10.0 mi SE 6.9 mph - N/A   Mostly Cloudy
7:56 AM 41.0 °F 36.4 °F 35.6 °F 81% 30.06 in 10.0 mi SE 6.9 mph - N/A   Mostly Cloudy
8:16 AM 41.0 °F 38.0 °F 33.8 °F 76% 30.06 in 10.0 mi SSE 4.6 mph - N/A   Mostly Cloudy
8:36 AM 41.0 °F 37.1 °F 33.8 °F 76% 30.05 in 10.0 mi SE 5.8 mph - N/A   Mostly Cloudy
8:56 AM 41.0 °F - 33.8 °F 76% 30.05 in 10.0 mi Calm Calm - N/A   Mostly Cloudy
9:16 AM 42.8 °F - 33.8 °F 70% 30.06 in 10.0 mi Calm Calm - N/A   Mostly Cloudy
9:36 AM 39.2 °F - 33.8 °F 81% 30.05 in 10.0 mi Calm Calm - N/A   Mostly Cloudy
9:56 AM 41.0 °F - 33.8 °F 76% 30.06 in 10.0 mi Calm Calm - N/A   Overcast
10:16 AM 42.8 °F 40.1 °F 35.6 °F 76% 30.05 in 10.0 mi SE 4.6 mph - N/A   Overcast
10:36 AM 42.8 °F 41.1 °F 35.6 °F 76% 30.06 in 10.0 mi NW 3.5 mph - N/A   Overcast
10:56 AM 41.0 °F 37.1 °F 33.8 °F 76% 30.06 in 10.0 mi WNW 5.8 mph - N/A   Overcast
11:16 AM 41.0 °F 38.0 °F 33.8 °F 76% 30.05 in 10.0 mi NNW 4.6 mph - N/A   Overcast
11:36 AM 42.8 °F 40.1 °F 33.8 °F 70% 30.05 in 10.0 mi West 4.6 mph - N/A   Overcast
11:56 AM 42.8 °F - 35.6 °F 76% 30.04 in 10.0 mi Calm Calm - N/A   Overcast
12:16 PM 44.6 °F 41.4 °F 37.4 °F 76% 30.04 in 10.0 mi South 5.8 mph - N/A   Overcast
12:36 PM 44.6 °F 42.2 °F 35.6 °F 71% 30.04 in 10.0 mi WNW 4.6 mph - N/A   Overcast
12:56 PM 42.8 °F 41.1 °F 33.8 °F 70% 30.04 in 10.0 mi NW 3.5 mph - N/A   Overcast
1:16 PM 42.8 °F 38.6 °F 35.6 °F 76% 30.04 in 10.0 mi SE 6.9 mph - N/A   Overcast
1:36 PM 44.6 °F 40.2 °F 35.6 °F 71% 30.04 in 10.0 mi SE 8.1 mph - N/A   Overcast
1:56 PM 44.6 °F 40.7 °F 35.6 °F 71% 30.03 in 10.0 mi SE 6.9 mph - N/A   Overcast
2:16 PM 44.6 °F - 35.6 °F 71% 30.04 in 10.0 mi Calm Calm - N/A   Overcast
2:36 PM 44.6 °F 40.7 °F 35.6 °F 71% 30.02 in 10.0 mi SE 6.9 mph - N/A   Overcast
2:56 PM 42.8 °F 39.3 °F 35.6 °F 76% 30.02 in 10.0 mi NNW 5.8 mph - N/A   Overcast
3:16 PM 44.6 °F 39.7 °F 35.6 °F 71% 30.02 in 10.0 mi SE 9.2 mph - N/A   Overcast
3:36 PM 44.6 °F - 35.6 °F 71% 30.02 in 10.0 mi Calm Calm - N/A   Overcast
3:56 PM 42.8 °F - 35.6 °F 76% 30.03 in 10.0 mi Calm Calm - N/A   Overcast
4:16 PM 42.8 °F - 35.6 °F 76% 30.03 in 10.0 mi Calm Calm - N/A   Overcast
4:36 PM 42.8 °F 41.1 °F 35.6 °F 76% 30.04 in 10.0 mi SE 3.5 mph - N/A   Overcast
4:56 PM 42.8 °F 38.6 °F 35.6 °F 76% 30.05 in 10.0 mi ESE 6.9 mph - N/A   Overcast
5:16 PM 42.8 °F 38.0 °F 35.6 °F 76% 30.05 in 10.0 mi SE 8.1 mph - N/A   Overcast
5:36 PM 42.8 °F 38.6 °F 35.6 °F 76% 30.04 in 10.0 mi SE 6.9 mph - N/A   Overcast
5:56 PM 42.8 °F 36.6 °F 35.6 °F 76% 30.04 in 10.0 mi SE 11.5 mph - N/A   Scattered Clouds
6:16 PM 42.8 °F 38.0 °F 35.6 °F 76% 30.05 in 10.0 mi SE 8.1 mph - N/A   Scattered Clouds
6:36 PM 42.8 °F 38.6 °F 35.6 °F 76% 30.05 in 10.0 mi SSE 6.9 mph - N/A   Scattered Clouds
6:56 PM 42.8 °F 39.3 °F 35.6 °F 76% 30.06 in 10.0 mi SE 5.8 mph - N/A   Scattered Clouds
7:16 PM 42.8 °F - 35.6 °F 76% 30.06 in 10.0 mi Calm Calm - N/A   Overcast
7:36 PM 42.8 °F 40.1 °F 35.6 °F 76% 30.06 in 10.0 mi ESE 4.6 mph - N/A   Overcast
7:56 PM 42.8 °F 41.1 °F 35.6 °F 76% 30.05 in 10.0 mi East 3.5 mph - N/A   Overcast
8:16 PM 41.0 °F - 35.6 °F 81% 30.06 in 10.0 mi Calm Calm - N/A   Mostly Cloudy
8:36 PM 42.8 °F 38.6 °F 35.6 °F 76% 30.06 in 10.0 mi ESE 6.9 mph - N/A   Mostly Cloudy
8:56 PM 42.8 °F 38.6 °F 35.6 °F 76% 30.07 in 10.0 mi SSE 6.9 mph - N/A   Mostly Cloudy
9:16 PM 42.8 °F 39.3 °F 35.6 °F 76% 30.07 in 10.0 mi SE 5.8 mph - N/A   Overcast
9:36 PM 42.8 °F 37.5 °F 35.6 °F 76% 30.07 in 10.0 mi SE 9.2 mph - N/A   Overcast
9:56 PM 42.8 °F - 35.6 °F 76% 30.08 in 10.0 mi Calm Calm - N/A   Overcast
10:16 PM 39.2 °F 35.9 °F 32.0 °F 75% 30.09 in 10.0 mi WNW 4.6 mph - N/A   Mostly Cloudy
10:36 PM 39.2 °F 34.2 °F 32.0 °F 75% 30.10 in 10.0 mi NW 6.9 mph - N/A   Overcast
10:56 PM 39.2 °F - 33.8 °F 81% 30.11 in 10.0 mi Calm Calm - N/A   Overcast
11:16 PM 39.2 °F - 32.0 °F 75% 30.11 in 10.0 mi Calm Calm - N/A   Overcast
11:36 PM 39.2 °F 35.9 °F 33.8 °F 81% 30.12 in 10.0 mi SE 4.6 mph - N/A   Mostly Cloudy
11:56 PM 41.0 °F 36.4 °F 35.6 °F 81% 30.13 in 10.0 mi SE 6.9 mph - N/A   Mostly Cloudy